#timestamp,LO_Frequency,Hit,StdDev 
1635998415.7,286047002.1,N
1635998435.5,286047004.0,N
1635998455.4,286047003.5,N
1635998475.2,286047003.6,N
1635998495.1,286047003.6,N
1635998496.0,286047003.6,N
1635998515.8,286047003.6,N
1635998535.6,286047003.7,N
1635998555.5,286047001.9,N
1635998575.3,286047001.9,N
1635998595.1,286047001.7,N
1635998615.9,286047004.4,N
1635998635.7,286047001.3,N
1635998655.6,286047004.3,N
1635998675.4,286047003.9,N
1635998695.2,286047002.5,N
1635998715.1,286047001.6,N
1635998716.0,286047001.6,N
1635998735.8,286047001.7,N
1635998755.7,286047001.7,N
1635998775.5,286047004.0,N
1635998795.3,286047001.7,N
1635998815.2,286047002.1,N
1635998835.0,286047001.4,N
1635998835.9,286047001.4,N
1635998855.8,286047001.4,N
1635998875.6,286047002.2,N
1635998895.4,286047002.7,N
1635998915.3,286047001.7,N
1635998935.1,286047002.0,N
1635998955.8,286047000.3,N
1635998975.7,286047000.5,N
1635998995.5,286047001.0,N
1635999015.4,286047000.9,N
1635999035.2,286047000.0,N
1635999055.0,286047000.4,N
1635999055.9,286047000.4,N
1635999075.8,286046998.2,N
1635999095.6,286047001.0,N
1635999115.4,286047000.5,N
1635999135.3,286047002.7,N
1635999155.1,286047002.8,N
1635999175.9,286047000.9,N
1635999195.7,286047001.0,N
1635999215.5,286047000.8,N
1635999235.4,286046998.4,N
1635999255.2,286047000.9,N
1635999275.0,286047001.1,N
1635999275.9,286047001.1,N
1635999295.8,286047000.9,N
1635999315.6,286047002.8,N
1635999335.5,286046999.7,N
1635999355.3,286047002.8,N
1635999375.1,286047002.5,N
1635999395.9,286046999.8,N
1635999415.7,286047002.7,N
1635999435.5,286046999.7,N
1635999455.4,286047000.1,N
1635999475.2,286047001.8,N
1635999495.1,286047001.3,N
1635999496.0,286047001.3,N
1635999515.8,286047001.7,N
1635999535.6,286047003.5,N
1635999555.5,286047003.2,N
1635999575.3,286047003.9,N
1635999595.2,286047002.1,N
1635999615.9,286047001.6,N
1635999635.7,286047004.4,Y
1635999655.6,286047000.6,P
1635999675.4,286047002.8,P
1635999695.2,286047000.4,N
1635999715.1,286047000.3,N
1635999716.0,286047000.3,N
1635999735.8,286047000.6,N
1635999755.7,286047001.1,N
1635999775.5,286046999.7,N
1635999795.3,286047002.4,N
1635999815.2,286047000.2,N
1635999835.0,286046999.8,N
1635999835.9,286046999.8,N
1635999855.7,286047001.6,N
1635999875.6,286047002.4,N
1635999895.4,286047000.0,N
1635999915.3,286047000.1,N
1635999935.1,286047002.8,N
1635999936.0,286047002.8,N
1635999955.8,286047001.0,N
1635999975.7,286047001.2,N
1635999995.5,286047000.7,N
1636000015.3,286047001.2,N
1636000035.2,286047000.6,N
1636000055.0,286047000.6,N
1636000055.9,286047000.6,N
1636000075.8,286047002.4,N
1636000095.6,286047002.4,N
1636000115.4,286047002.2,N
1636000135.3,286047002.4,N
1636000155.1,286047001.3,N
1636000175.9,286047002.0,N
1636000195.7,286047001.3,N
1636000215.5,286047001.5,N
1636000235.4,286047001.5,N
1636000255.2,286047003.1,Y
1636000275.1,286047002.2,P
1636000276.0,286047002.2,P
1636000295.8,286047002.6,P
1636000315.6,286047002.7,Y
1636000335.5,286046996.8,P
1636000355.3,286046996.8,N
1636000375.2,286046997.2,N
1636000395.9,286046997.1,N
1636000415.7,286046997.3,N
1636000435.6,286046996.8,N
1636000455.4,286046996.7,N
1636000475.2,286046996.7,N
1636000495.1,286046999.1,N
1636000496.0,286046999.1,N
1636000515.8,286046999.4,N
1636000535.7,286046999.6,N
1636000555.5,286046999.4,N
1636000575.3,286046998.8,N
1636000595.2,286046998.7,N
1636000615.0,286046999.0,N
1636000615.9,286046999.0,N
1636000635.8,286046996.5,N
1636000655.6,286046999.3,N
1636000675.4,286046996.6,N
1636000695.3,286046997.5,N
1636000715.1,286046997.5,N
1636000735.8,286046996.1,N
1636000755.7,286046995.0,Y
1636000775.5,286046999.6,P
1636000795.4,286046999.4,N
1636000815.2,286046997.4,P
1636000835.0,286046997.8,N
1636000835.9,286046997.8,N
1636000855.8,286046995.2,Y
1636000875.6,286046998.0,P
1636000895.5,286046994.9,P
1636000915.3,286046997.0,N
1636000935.1,286046997.0,N
1636000955.9,286046999.2,N
1636000975.7,286046996.9,N
1636000995.5,286046997.6,N
1636001015.4,286046998.7,N
1636001035.2,286046999.5,N
1636001055.1,286046996.5,N
1636001056.0,286046996.5,N
1636001075.8,286046996.6,N
1636001095.6,286046996.5,N
1636001115.5,286046998.9,N
1636001135.3,286046998.5,N
1636001155.1,286046998.5,N
1636001175.9,286046998.1,N
1636001195.7,286046999.6,N
1636001215.6,286046999.2,N
1636001235.4,286046997.3,N
1636001255.2,286046997.1,N
1636001275.1,286046997.5,N
1636001276.0,286046997.5,N
1636001295.8,286046997.4,N
1636001315.7,286046995.9,Y
1636001335.5,286046996.9,P
1636001355.3,286046997.0,P
1636001375.2,286046998.7,P
1636001395.0,286046998.3,N
1636001395.9,286046998.3,N
1636001415.6,286046998.5,N
1636001435.4,286046998.1,N
1636001455.3,286046998.2,N
1636001475.1,286046998.2,Y
1636001476.0,286046998.2,P
1636001495.8,286047002.8,P
1636001515.7,286046999.9,N
1636001535.5,286046998.1,N
1636001555.3,286046999.7,N
1636001575.2,286046999.9,N
1636001595.0,286047001.0,N
1636001595.9,286047001.0,N
1636001615.8,286046998.8,N
1636001635.6,286046999.6,N
1636001655.4,286046999.1,N
1636001675.3,286046997.3,N
1636001695.1,286046994.9,Y
1636001715.9,286046997.9,P
1636001735.7,286046997.2,P
1636001755.5,286046996.8,P
1636001775.4,286046999.4,N
1636001795.2,286046998.7,N
1636001815.0,286046998.5,N
1636001815.9,286046998.5,N
1636001835.8,286047000.0,N
1636001855.6,286047001.0,N
1636001875.5,286047000.0,N
1636001895.3,286047000.8,N
1636001915.1,286046998.2,N
1636001935.9,286047001.2,N
1636001955.7,286047001.1,N
1636001975.5,286047000.2,N
1636001995.4,286047002.5,N
